Starlink 31267

operational
NORAD ID: 59468 Int'l Des: 2024-068 Owner: SPXS Country: US Constellation: starlink
LEOCIRCULAR

Über Starlink 31267

Beschreibung wird geladen...

Live-Position

3D-Globus wird geladen...

Nächste Überflüge

Höhenverlauf

Altitude vs Time

uPlot chart will show altitude changes over time

Zweizeiliger Elementsatz

1 59468U 24068P 25351.12134076 .00001791 00000-0 74612-4 0 9994
2 59468 43.0024 136.6034 0001417 275.8616 84.2075 15.27576698 95947
Epoch: 17. Dez. 2025 • Age: 16 hours

Aktueller Status

Höhe 482.8 km
Geschwindigkeit 7.63 km/s
Subsatellitenpunkt 16.97°N, 82.1°W
Startdatum 10. Apr. 2024
Alter 1.6 years
Typ internet

Technische Details

Klassifizierung Payload
Masse 730.00 kg
Trockenmasse 700.00 kg
Gesamtmasse 730.00 kg
Länge 0.30 m
Durchmesser 4.10 m
Spannweite 29.00 m
Form Box + pan
Hersteller SPXS
Bus-Typ Starlink V2M
Phasenstatus In Orbit
Besitzer/Staat SPXS/US

Große Konstellationen

Loading constellations...